Regional Weather Roundup
Issued by NWS

Home | Current Version | Previous Version | Graphics & Text | Print | Product List | Glossary On
Versions: 1 2 3 4 5 6 7 8 9 10 11 12 13 14 15 16 17 18 19 20 21 22 23 24 25 26 27 28 29 30 31 32 33 34 35 36 37 38 39 40 41 42 43 44 45 46 47 48 49 50
516
ASUS44 KLIX 251210
RWRLA
LOUISIANA WEATHER ROUNDUP
NATIONAL WEATHER SERVICE NEW ORLEANS LA
600 AM CST SUN JAN 25 2015

NOTE: "FAIR" INDICATES FEW OR NO CLOUDS BELOW 12,000 FEET WITH NO
      SIGNIFICANT WEATHER AND/OR OBSTRUCTIONS TO VISIBILITY.
      SKY/WX - SKY CONDITION AND SIGNIFICANT WEATHER.
      TMP - AIR TEMPERATURE.    DP   - DEWPOINT TEMPERATURE.
      RH  - RELATIVE HUMIDITY.  PRES - PRESSURE.
      HX  - HEAT INDEX.         WCI  - WIND CHILL INDEX.

*  THESE STATIONS ARE NOT NWS OR FAA STATIONS AND ARE NOT UNDER
   NWS QUALITY CONTROL.

LAZ040-048-061>063-065-066-069-251300-
SOUTHEAST LOUISIANA

CITY           SKY/WX    TMP DP  RH WIND       PRES   REMARKS
N.O. AUDUBON     N/A     41  41 100 MISG        N/A
6HR MIN TEMP:  41; 6HR MAX TEMP:  43;

N.O. INTL ARPT CLEAR     41  39  93 S6        30.06R
6HR MIN TEMP:  41; 6HR MAX TEMP:  45;

N.O. LAKEFRONT CLEAR     47  42  83 SW9       30.06R
6HR MIN TEMP:  45; 6HR MAX TEMP:  50;

N.O. DOWNTOWN* FAIR      45  39  81 S7        30.06S
6HR MIN TEMP:  45; 6HR MAX TEMP:  46;

SLIDELL        CLEAR     37  34  89 CALM      30.04R
6HR MIN TEMP:  34; 6HR MAX TEMP:  47;

BATON ROUGE    CLEAR     39  37  92 SW6       30.02F WCI  35
6HR MIN TEMP:  39; 6HR MAX TEMP:  45;

BOOTHVILLE     CLEAR     47  45  93 W6        30.08S
6HR MIN TEMP:  45; 6HR MAX TEMP:  48;

BELLE CHASSE   CLEAR     38  35  89 SW5       30.06S FOG     WCI  34
6HR MIN TEMP:  36; 6HR MAX TEMP:  47;

BOGALUSA*        N/A     33  31  92 CALM      30.05R
6HR MIN TEMP:  33; 6HR MAX TEMP:  41;

GALLIANO*      SUNNY     42  42  99 MISG      30.07F
6HR MIN TEMP:  37; 6HR MAX TEMP:  46;

NEW ROADS*     FOG       37  37  98 CALM      30.02S VSB 3/4
6HR MIN TEMP:  37; 6HR MAX TEMP:  45;

GONZALES*      FAIR      38  38 100 S3        30.05R
6HR MIN TEMP:  36; 6HR MAX TEMP:  42;

HAMMOND*       CLEAR     36  34  93 CALM      30.05S
HOUMA*         NOT AVBL
PORT FOURCHON* MOSUNNY   52  48  87 CALM      30.11R

$$

LAZ041-044-053-054-251300-
SOUTHWEST LOUISIANA

CITY           SKY/WX    TMP DP  RH WIND       PRES   REMARKS
LAKE CHARLES   CLEAR     42  41  96 CALM      30.02F FOG
6HR MIN TEMP:  41; 6HR MAX TEMP:  47;

LAFAYETTE      FOG       44  44 100 S7        30.03F VSB 1/4
6HR MIN TEMP:  41; 6HR MAX TEMP:  46;

PATTERSON        N/A     37  36  93 S5        30.07S VSB 3/4 WCI  34
6HR MIN TEMP:  37; 6HR MAX TEMP:  43;

SALT POINT       N/A     47  46  97 VRB3      30.05S
6HR MIN TEMP:  45; 6HR MAX TEMP:  50;

NEW IBERIA     FOG       40  39  97 SW5       30.05S VSB 1/4
6HR MIN TEMP:  36; 6HR MAX TEMP:  44;

CHENAULT AIRPK CLEAR     43  41  93 SW3       30.02

$$

LAZ027-028-251300-
CENTRAL LOUISIANA

CITY           SKY/WX    TMP DP  RH WIND       PRES   REMARKS
FORT POLK      CLEAR     43  38  83 W9        29.97F
6HR MIN TEMP:  38; 6HR MAX TEMP:  44;

ALEXANDRIA INT CLEAR     41  37  86 CALM      29.97F
6HR MIN TEMP:  39; 6HR MAX TEMP:  44;

ALEXANDRIA     CLEAR     32  30  92 CALM      29.98F
6HR MIN TEMP:  32; 6HR MAX TEMP:  36;


$$

LAZ001-002-251300-
NORTHWEST LOUISIANA

CITY           SKY/WX    TMP DP  RH WIND       PRES   REMARKS
SHREVEPORT     CLEAR     40  34  79 SW7       29.90F
6HR MIN TEMP:  35; 6HR MAX TEMP:  42;

BARKSDALE AFB  CLEAR     34  33  93 S5        29.91F WCI  30
6HR MIN TEMP:  33; 6HR MAX TEMP:  40;

DTN SHREVEPORT CLEAR     42  33  70 SW9       29.91F
6HR MIN TEMP:  39; 6HR MAX TEMP:  44;


$$

LAZ014-016-251300-
NORTHEAST LOUISIANA

CITY           SKY/WX    TMP DP  RH WIND       PRES   REMARKS
MONROE         CLEAR     37  35  92 S6        29.94F WCI  32
6HR MIN TEMP:  37; 6HR MAX TEMP:  43;

TALLULAH       CLEAR     41  37  86 S3        29.97S
6HR MIN TEMP:  40; 6HR MAX TEMP:  44;


$$




USA.gov is the U.S. government's official web portal to all federal, state and local government web resources and services.